Year,Month,Day,Hour,Minute,Value (Times are PST for temperature in C)
2015,07,04,00,00,24.20
2015,07,04,00,01,24.20
2015,07,04,00,02,24.20
2015,07,04,00,03,24.10
2015,07,04,00,04,24.10
2015,07,04,00,05,24.00
2015,07,04,00,06,24.00
2015,07,04,00,07,23.90
2015,07,04,00,08,23.90
2015,07,04,00,09,23.80
2015,07,04,00,10,23.70
2015,07,04,00,11,23.70
2015,07,04,00,12,23.50
2015,07,04,00,13,23.20
2015,07,04,00,14,23.00
2015,07,04,00,15,22.90
2015,07,04,00,16,22.80
2015,07,04,00,17,22.70
2015,07,04,00,18,22.60
2015,07,04,00,19,22.50
2015,07,04,00,20,22.50
2015,07,04,00,21,22.40
2015,07,04,00,22,22.30
2015,07,04,00,23,22.30
2015,07,04,00,24,22.20
2015,07,04,00,25,22.20
2015,07,04,00,26,22.20
2015,07,04,00,27,22.10
2015,07,04,00,28,22.10
2015,07,04,00,29,22.00
2015,07,04,00,30,22.00
2015,07,04,00,31,21.90
2015,07,04,00,32,21.80
2015,07,04,00,33,21.80
2015,07,04,00,34,21.80
2015,07,04,00,35,21.80
2015,07,04,00,36,21.80
2015,07,04,00,37,21.70
2015,07,04,00,38,21.60
2015,07,04,00,39,21.50
2015,07,04,00,40,21.50
2015,07,04,00,41,21.50
2015,07,04,00,42,21.50
2015,07,04,00,43,21.50
2015,07,04,00,44,21.60
2015,07,04,00,45,21.60
2015,07,04,00,46,21.50
2015,07,04,00,47,21.40
2015,07,04,00,48,21.30
2015,07,04,00,49,21.30
2015,07,04,00,50,21.20
2015,07,04,00,51,21.20
2015,07,04,00,52,21.20
2015,07,04,00,53,21.10
2015,07,04,00,54,21.10
2015,07,04,00,55,21.10
2015,07,04,00,56,21.00
2015,07,04,00,57,21.00
2015,07,04,00,58,21.00
2015,07,04,00,59,21.00
2015,07,04,01,00,20.90
2015,07,04,01,01,20.90
2015,07,04,01,02,20.90
2015,07,04,01,03,20.90
2015,07,04,01,04,20.90
2015,07,04,01,05,20.80
2015,07,04,01,06,20.80
2015,07,04,01,07,20.90
2015,07,04,01,08,20.90
2015,07,04,01,09,21.00
2015,07,04,01,10,20.90
2015,07,04,01,11,20.90
2015,07,04,01,12,20.80
2015,07,04,01,13,20.80
2015,07,04,01,14,20.80
2015,07,04,01,15,20.80
2015,07,04,01,16,20.80
2015,07,04,01,17,20.70
2015,07,04,01,18,20.70
2015,07,04,01,19,20.80
2015,07,04,01,20,20.80
2015,07,04,01,21,20.80
2015,07,04,01,22,20.90
2015,07,04,01,23,20.90
2015,07,04,01,24,20.80
2015,07,04,01,25,20.70
2015,07,04,01,26,20.60
2015,07,04,01,27,20.50
2015,07,04,01,28,20.40
2015,07,04,01,29,20.30
2015,07,04,01,30,20.30
2015,07,04,01,31,20.20
2015,07,04,01,32,20.20
2015,07,04,01,33,20.10
2015,07,04,01,34,20.10
2015,07,04,01,35,20.10
2015,07,04,01,36,20.10
2015,07,04,01,37,20.10
2015,07,04,01,38,20.10
2015,07,04,01,39,20.10
2015,07,04,01,40,20.10
2015,07,04,01,41,20.00
2015,07,04,01,42,20.00
2015,07,04,01,43,19.90
2015,07,04,01,44,19.90
2015,07,04,01,45,19.90
2015,07,04,01,46,20.00
2015,07,04,01,47,20.00
2015,07,04,01,48,20.00
2015,07,04,01,49,20.00
2015,07,04,01,50,20.00
2015,07,04,01,51,20.00
2015,07,04,01,52,20.10
2015,07,04,01,53,20.10
2015,07,04,01,54,20.10
2015,07,04,01,55,20.10
2015,07,04,01,56,20.00
2015,07,04,01,57,20.00
2015,07,04,01,58,20.00
2015,07,04,01,59,20.00
2015,07,04,02,00,20.00
2015,07,04,02,01,20.10
2015,07,04,02,02,20.10
2015,07,04,02,03,20.10
2015,07,04,02,04,20.10
2015,07,04,02,05,20.10
2015,07,04,02,06,20.10
2015,07,04,02,07,20.20
2015,07,04,02,08,20.20
2015,07,04,02,09,20.20
2015,07,04,02,10,20.20
2015,07,04,02,11,20.10
2015,07,04,02,12,20.00
2015,07,04,02,13,19.90
2015,07,04,02,14,19.80
2015,07,04,02,15,19.80
2015,07,04,02,16,19.70
2015,07,04,02,17,19.70
2015,07,04,02,18,19.70
2015,07,04,02,19,19.70
2015,07,04,02,20,19.70
2015,07,04,02,21,19.60
2015,07,04,02,22,19.60
2015,07,04,02,23,19.60
2015,07,04,02,24,19.50
2015,07,04,02,25,19.60
2015,07,04,02,26,19.50
2015,07,04,02,27,19.50
2015,07,04,02,28,19.50
2015,07,04,02,29,19.50
2015,07,04,02,30,19.40
2015,07,04,02,31,19.40
2015,07,04,02,32,19.40
2015,07,04,02,33,19.40
2015,07,04,02,34,19.30
2015,07,04,02,35,19.30
2015,07,04,02,36,19.30
2015,07,04,02,37,19.30
2015,07,04,02,38,19.30
2015,07,04,02,39,19.30
2015,07,04,02,40,19.30
2015,07,04,02,41,19.30
2015,07,04,02,42,19.40
2015,07,04,02,43,19.40
2015,07,04,02,44,19.30
2015,07,04,02,45,19.30
2015,07,04,02,46,19.30
2015,07,04,02,47,19.20
2015,07,04,02,48,19.20
2015,07,04,02,49,19.20
2015,07,04,02,50,19.20
2015,07,04,02,51,19.10
2015,07,04,02,52,19.10
2015,07,04,02,53,19.10
2015,07,04,02,54,19.00
2015,07,04,02,55,18.90
2015,07,04,02,56,18.90
2015,07,04,02,57,18.90
2015,07,04,02,58,18.90
2015,07,04,02,59,18.80
2015,07,04,03,00,18.80
2015,07,04,03,01,18.80
2015,07,04,03,02,18.80
2015,07,04,03,03,18.80
2015,07,04,03,04,18.80
2015,07,04,03,05,18.90
2015,07,04,03,06,18.90
2015,07,04,03,07,18.90
2015,07,04,03,08,18.90
2015,07,04,03,09,18.90
2015,07,04,03,10,18.90
2015,07,04,03,11,18.90
2015,07,04,03,12,18.90
2015,07,04,03,13,18.90
2015,07,04,03,14,18.90
2015,07,04,03,15,18.90
2015,07,04,03,16,18.80
2015,07,04,03,17,18.80
2015,07,04,03,18,18.70
2015,07,04,03,19,18.70
2015,07,04,03,20,18.70
2015,07,04,03,21,18.70
2015,07,04,03,22,18.70
2015,07,04,03,23,18.70
2015,07,04,03,24,18.80
2015,07,04,03,25,18.80
2015,07,04,03,26,18.80
2015,07,04,03,27,18.80
2015,07,04,03,28,18.70
2015,07,04,03,29,18.70
2015,07,04,03,30,18.70
2015,07,04,03,31,18.60
2015,07,04,03,32,18.60
2015,07,04,03,33,18.60
2015,07,04,03,34,18.60
2015,07,04,03,35,18.50
2015,07,04,03,36,18.60
2015,07,04,03,37,18.60
2015,07,04,03,38,18.50
2015,07,04,03,39,18.50
2015,07,04,03,40,18.50
2015,07,04,03,41,18.40
2015,07,04,03,42,18.40
2015,07,04,03,43,18.40
2015,07,04,03,44,18.40
2015,07,04,03,45,18.40
2015,07,04,03,46,18.40
2015,07,04,03,47,18.40
2015,07,04,03,48,18.40
2015,07,04,03,49,18.30
2015,07,04,03,50,18.20
2015,07,04,03,51,18.20
2015,07,04,03,52,18.10
2015,07,04,03,53,18.10
2015,07,04,03,54,18.00
2015,07,04,03,55,17.90
2015,07,04,03,56,17.90
2015,07,04,03,57,17.80
2015,07,04,03,58,17.80
2015,07,04,03,59,17.70
2015,07,04,04,00,17.80
2015,07,04,04,01,17.80
2015,07,04,04,02,17.80
2015,07,04,04,03,17.90
2015,07,04,04,04,17.90
2015,07,04,04,05,17.90
2015,07,04,04,06,17.90
2015,07,04,04,07,17.90
2015,07,04,04,08,18.00
2015,07,04,04,09,18.00
2015,07,04,04,10,18.00
2015,07,04,04,11,18.10
2015,07,04,04,12,18.10
2015,07,04,04,13,18.10
2015,07,04,04,14,18.10
2015,07,04,04,15,18.10
2015,07,04,04,16,18.10
2015,07,04,04,17,18.00
2015,07,04,04,18,18.00
2015,07,04,04,19,18.00
2015,07,04,04,20,18.00
2015,07,04,04,21,17.90
2015,07,04,04,22,17.90
2015,07,04,04,23,17.90
2015,07,04,04,24,17.80
2015,07,04,04,25,17.80
2015,07,04,04,26,17.70
2015,07,04,04,27,17.70
2015,07,04,04,28,17.70
2015,07,04,04,29,17.70
2015,07,04,04,30,17.70
2015,07,04,04,31,17.70
2015,07,04,04,32,17.70
2015,07,04,04,33,17.80
2015,07,04,04,34,17.80
2015,07,04,04,35,17.80
2015,07,04,04,36,17.80
2015,07,04,04,37,17.80
2015,07,04,04,38,17.80
2015,07,04,04,39,17.90
2015,07,04,04,40,17.80
2015,07,04,04,41,17.80
2015,07,04,04,42,17.80
2015,07,04,04,43,17.80
2015,07,04,04,44,17.80
2015,07,04,04,45,17.70
2015,07,04,04,46,17.60
2015,07,04,04,47,17.50
2015,07,04,04,48,17.40
2015,07,04,04,49,17.30
2015,07,04,04,50,17.30
2015,07,04,04,51,17.30
2015,07,04,04,52,17.30
2015,07,04,04,53,17.20
2015,07,04,04,54,17.10
2015,07,04,04,55,17.10
2015,07,04,04,56,17.10
2015,07,04,04,57,17.10
2015,07,04,04,58,17.10
2015,07,04,04,59,17.10
2015,07,04,05,00,17.10
2015,07,04,05,01,17.10
2015,07,04,05,02,17.20
2015,07,04,05,03,17.30
2015,07,04,05,04,17.40
2015,07,04,05,05,17.40
2015,07,04,05,06,17.60
2015,07,04,05,07,17.70
2015,07,04,05,08,17.80
2015,07,04,05,09,18.00
2015,07,04,05,10,18.10
2015,07,04,05,11,18.10
2015,07,04,05,12,18.20
2015,07,04,05,13,18.30
2015,07,04,05,14,18.40
2015,07,04,05,15,18.50
2015,07,04,05,16,18.60
2015,07,04,05,17,18.60
2015,07,04,05,18,18.50
2015,07,04,05,19,18.40
2015,07,04,05,20,18.30
2015,07,04,05,21,18.20
2015,07,04,05,22,18.10
2015,07,04,05,23,17.90
2015,07,04,05,24,17.80
2015,07,04,05,25,17.70
2015,07,04,05,26,17.50
2015,07,04,05,27,17.40
2015,07,04,05,28,17.30
2015,07,04,05,29,17.20
2015,07,04,05,30,17.20
2015,07,04,05,31,17.20
2015,07,04,05,32,17.10
2015,07,04,05,33,17.10
2015,07,04,05,34,17.10
2015,07,04,05,35,17.10
2015,07,04,05,36,17.10
2015,07,04,05,37,17.10
2015,07,04,05,38,17.20
2015,07,04,05,39,17.20
2015,07,04,05,40,17.20
2015,07,04,05,41,17.30
2015,07,04,05,42,17.30
2015,07,04,05,43,17.30
2015,07,04,05,44,17.40
2015,07,04,05,45,17.50
2015,07,04,05,46,17.60
2015,07,04,05,47,17.70
2015,07,04,05,48,17.80
2015,07,04,05,49,17.90
2015,07,04,05,50,18.00
2015,07,04,05,51,18.10
2015,07,04,05,52,18.30
2015,07,04,05,53,18.40
2015,07,04,05,54,18.50
2015,07,04,05,55,18.60
2015,07,04,05,56,18.70
2015,07,04,05,57,18.70
2015,07,04,05,58,18.80
2015,07,04,05,59,18.80
2015,07,04,06,00,18.80
2015,07,04,06,01,18.80
2015,07,04,06,02,18.80
2015,07,04,06,03,18.80
2015,07,04,06,04,18.80
2015,07,04,06,05,18.90
2015,07,04,06,06,18.90
2015,07,04,06,07,18.90
2015,07,04,06,08,18.90
2015,07,04,06,09,19.00
2015,07,04,06,10,19.00
2015,07,04,06,11,19.00
2015,07,04,06,12,19.10
2015,07,04,06,13,19.10
2015,07,04,06,14,19.10
2015,07,04,06,15,19.10
2015,07,04,06,16,19.20
2015,07,04,06,17,19.20
2015,07,04,06,18,19.20
2015,07,04,06,19,19.30
2015,07,04,06,20,19.30
2015,07,04,06,21,19.30
2015,07,04,06,22,19.40
2015,07,04,06,23,19.40
2015,07,04,06,24,19.50
2015,07,04,06,25,19.50
2015,07,04,06,26,19.50
2015,07,04,06,27,19.60
2015,07,04,06,28,19.60
2015,07,04,06,29,19.60
2015,07,04,06,30,19.60
2015,07,04,06,31,19.60
2015,07,04,06,32,19.70
2015,07,04,06,33,19.70
2015,07,04,06,34,19.70
2015,07,04,06,35,19.80
2015,07,04,06,36,19.80
2015,07,04,06,37,19.80
2015,07,04,06,38,19.90
2015,07,04,06,39,19.90
2015,07,04,06,40,19.90
2015,07,04,06,41,19.90
2015,07,04,06,42,19.90
2015,07,04,06,43,19.90
2015,07,04,06,44,19.90
2015,07,04,06,45,19.90
2015,07,04,06,46,19.90
2015,07,04,06,47,20.00
2015,07,04,06,48,20.00
2015,07,04,06,49,20.10
2015,07,04,06,50,20.10
2015,07,04,06,51,20.10
2015,07,04,06,52,20.20
2015,07,04,06,53,20.20
2015,07,04,06,54,20.20
2015,07,04,06,55,20.20
2015,07,04,06,56,20.20
2015,07,04,06,57,20.30
2015,07,04,06,58,20.30
2015,07,04,06,59,20.30
2015,07,04,07,00,20.30
2015,07,04,07,01,20.30
2015,07,04,07,02,20.40
2015,07,04,07,03,20.40
2015,07,04,07,04,20.50
2015,07,04,07,05,20.50
2015,07,04,07,06,20.60
2015,07,04,07,07,20.70
2015,07,04,07,08,20.70
2015,07,04,07,09,20.80
2015,07,04,07,10,20.80
2015,07,04,07,11,20.80
2015,07,04,07,12,20.80
2015,07,04,07,13,20.80
2015,07,04,07,14,20.80
2015,07,04,07,15,20.70
2015,07,04,07,16,20.70
2015,07,04,07,17,20.70
2015,07,04,07,18,20.80
2015,07,04,07,19,20.80
2015,07,04,07,20,20.80
2015,07,04,07,21,20.80
2015,07,04,07,22,20.90
2015,07,04,07,23,20.90
2015,07,04,07,24,21.00
2015,07,04,07,25,21.00
2015,07,04,07,26,21.10
2015,07,04,07,27,21.20
2015,07,04,07,28,21.20
2015,07,04,07,29,21.30
2015,07,04,07,30,21.30
2015,07,04,07,31,21.30
2015,07,04,07,32,21.40
2015,07,04,07,33,21.50
2015,07,04,07,34,21.50
2015,07,04,07,35,21.60
2015,07,04,07,36,21.60
2015,07,04,07,37,21.70
2015,07,04,07,38,21.70
2015,07,04,07,39,21.80
2015,07,04,07,40,21.80
2015,07,04,07,41,21.90
2015,07,04,07,42,21.90
2015,07,04,07,43,22.00
2015,07,04,07,44,22.10
2015,07,04,07,45,22.10
2015,07,04,07,46,22.20
2015,07,04,07,47,22.20
2015,07,04,07,48,22.30
2015,07,04,07,49,22.40
2015,07,04,07,50,22.50
2015,07,04,07,51,22.60
2015,07,04,07,52,22.70
2015,07,04,07,53,22.70
2015,07,04,07,54,22.80
2015,07,04,07,55,22.80
2015,07,04,07,56,22.90
2015,07,04,07,57,23.00
2015,07,04,07,58,23.00
2015,07,04,07,59,23.10
2015,07,04,08,00,23.10
2015,07,04,08,01,23.10
2015,07,04,08,02,23.10
2015,07,04,08,03,23.20
2015,07,04,08,04,23.20
2015,07,04,08,05,23.30
2015,07,04,08,06,23.30
2015,07,04,08,07,23.40
2015,07,04,08,08,23.50
2015,07,04,08,09,23.50
2015,07,04,08,10,23.60
2015,07,04,08,11,23.60
2015,07,04,08,12,23.50
2015,07,04,08,13,23.50
2015,07,04,08,14,23.40
2015,07,04,08,15,23.40
2015,07,04,08,16,23.40
2015,07,04,08,17,23.40
2015,07,04,08,18,23.40
2015,07,04,08,19,23.40
2015,07,04,08,20,23.50
2015,07,04,08,21,23.50
2015,07,04,08,22,23.60
2015,07,04,08,23,23.60
2015,07,04,08,24,23.60
2015,07,04,08,25,23.60
2015,07,04,08,26,23.60
2015,07,04,08,27,23.60
2015,07,04,08,28,23.70
2015,07,04,08,29,23.70
2015,07,04,08,30,23.70
2015,07,04,08,31,23.80
2015,07,04,08,32,23.80
2015,07,04,08,33,23.90
2015,07,04,08,34,23.90
2015,07,04,08,35,23.90
2015,07,04,08,36,23.90
2015,07,04,08,37,24.00
2015,07,04,08,38,24.00
2015,07,04,08,39,24.00
2015,07,04,08,40,24.10
2015,07,04,08,41,24.10
2015,07,04,08,42,24.20
2015,07,04,08,43,24.20
2015,07,04,08,44,24.20
2015,07,04,08,45,24.30
2015,07,04,08,46,24.50
2015,07,04,08,47,24.50
2015,07,04,08,48,24.60
2015,07,04,08,49,24.60
2015,07,04,08,50,24.60
2015,07,04,08,51,24.60
2015,07,04,08,52,24.60
2015,07,04,08,53,24.70
2015,07,04,08,54,24.70
2015,07,04,08,55,24.70
2015,07,04,08,56,24.60
2015,07,04,08,57,24.60
2015,07,04,08,58,24.60
2015,07,04,08,59,24.70
2015,07,04,09,00,24.70
2015,07,04,09,01,24.70
2015,07,04,09,02,24.80
2015,07,04,09,03,24.80
2015,07,04,09,04,24.80
2015,07,04,09,05,24.90
2015,07,04,09,06,24.90
2015,07,04,09,07,24.90
2015,07,04,09,08,24.90
2015,07,04,09,09,24.90
2015,07,04,09,10,24.90
2015,07,04,09,11,25.00
2015,07,04,09,12,25.10
2015,07,04,09,13,25.10
2015,07,04,09,14,25.20
2015,07,04,09,15,25.20
2015,07,04,09,16,25.30
2015,07,04,09,17,25.30
2015,07,04,09,18,25.30
2015,07,04,09,19,25.30
2015,07,04,09,20,25.30
2015,07,04,09,21,25.30
2015,07,04,09,22,25.30
2015,07,04,09,23,25.20
2015,07,04,09,24,25.20
2015,07,04,09,25,25.20
2015,07,04,09,26,25.20
2015,07,04,09,27,25.20
2015,07,04,09,28,25.20
2015,07,04,09,29,25.30
2015,07,04,09,30,25.30
2015,07,04,09,31,25.40
2015,07,04,09,32,25.40
2015,07,04,09,33,25.50
2015,07,04,09,34,25.50
2015,07,04,09,35,25.60
2015,07,04,09,36,25.70
2015,07,04,09,37,25.80
2015,07,04,09,38,25.90
2015,07,04,09,39,25.90
2015,07,04,09,40,26.00
2015,07,04,09,41,26.10
2015,07,04,09,42,26.10
2015,07,04,09,43,26.20
2015,07,04,09,44,26.30
2015,07,04,09,45,26.40
2015,07,04,09,46,26.40
2015,07,04,09,47,26.50
2015,07,04,09,48,26.60
2015,07,04,09,49,26.70
2015,07,04,09,50,26.80
2015,07,04,09,51,26.90
2015,07,04,09,52,27.00
2015,07,04,09,53,27.10
2015,07,04,09,54,27.10
2015,07,04,09,55,27.10
2015,07,04,09,56,27.10
2015,07,04,09,57,27.20
2015,07,04,09,58,27.20
2015,07,04,09,59,27.10
2015,07,04,10,00,27.10
2015,07,04,10,01,27.10
2015,07,04,10,02,27.10
2015,07,04,10,03,27.10
2015,07,04,10,04,27.00
2015,07,04,10,05,27.00
2015,07,04,10,06,26.90
2015,07,04,10,07,26.90
2015,07,04,10,08,26.90
2015,07,04,10,09,27.00
2015,07,04,10,10,27.00
2015,07,04,10,11,27.00
2015,07,04,10,12,27.10
2015,07,04,10,13,27.10
2015,07,04,10,14,27.20
2015,07,04,10,15,27.30
2015,07,04,10,16,27.30
2015,07,04,10,17,27.30
2015,07,04,10,18,27.30
2015,07,04,10,19,27.40
2015,07,04,10,20,27.40
2015,07,04,10,21,27.40
2015,07,04,10,22,27.50
2015,07,04,10,23,27.60
2015,07,04,10,24,27.60
2015,07,04,10,25,27.60
2015,07,04,10,26,27.60
2015,07,04,10,27,27.60
2015,07,04,10,28,27.60
2015,07,04,10,29,27.60
2015,07,04,10,30,27.60
2015,07,04,10,31,27.60
2015,07,04,10,32,27.50
2015,07,04,10,33,27.40
2015,07,04,10,34,27.40
2015,07,04,10,35,27.40
2015,07,04,10,36,27.50
2015,07,04,10,37,27.50
2015,07,04,10,38,27.60
2015,07,04,10,39,27.70
2015,07,04,10,40,27.70
2015,07,04,10,41,27.80
2015,07,04,10,42,27.90
2015,07,04,10,43,28.00
2015,07,04,10,44,28.00
2015,07,04,10,45,28.10
2015,07,04,10,46,28.20
2015,07,04,10,47,28.30
2015,07,04,10,48,28.30
2015,07,04,10,49,28.30
2015,07,04,10,50,28.20
2015,07,04,10,51,28.20
2015,07,04,10,52,28.10
2015,07,04,10,53,28.00
2015,07,04,10,54,28.00
2015,07,04,10,55,28.00
2015,07,04,10,56,28.00
2015,07,04,10,57,28.10
2015,07,04,10,58,28.10
2015,07,04,10,59,28.10
2015,07,04,11,00,28.10
2015,07,04,11,01,28.00
2015,07,04,11,02,28.00
2015,07,04,11,03,27.90
2015,07,04,11,04,27.90
2015,07,04,11,05,27.90
2015,07,04,11,06,27.90
2015,07,04,11,07,28.00
2015,07,04,11,08,28.00
2015,07,04,11,09,28.10
2015,07,04,11,10,28.10
2015,07,04,11,11,28.10
2015,07,04,11,12,28.20
2015,07,04,11,13,28.20
2015,07,04,11,14,28.20
2015,07,04,11,15,28.20
2015,07,04,11,16,28.30
2015,07,04,11,17,28.30
2015,07,04,11,18,28.40
2015,07,04,11,19,28.50
2015,07,04,11,20,28.60
2015,07,04,11,21,28.80
2015,07,04,11,22,28.80
2015,07,04,11,23,28.90
2015,07,04,11,24,28.80
2015,07,04,11,25,28.80
2015,07,04,11,26,28.70
2015,07,04,11,27,28.60
2015,07,04,11,28,28.60
2015,07,04,11,29,28.60
2015,07,04,11,30,28.60
2015,07,04,11,31,28.50
2015,07,04,11,32,28.50
2015,07,04,11,33,28.40
2015,07,04,11,34,28.40
2015,07,04,11,35,28.30
2015,07,04,11,36,28.10
2015,07,04,11,37,28.00
2015,07,04,11,38,27.90
2015,07,04,11,39,27.90
2015,07,04,11,40,27.90
2015,07,04,11,41,28.00
2015,07,04,11,42,28.10
2015,07,04,11,43,28.20
2015,07,04,11,44,28.30
2015,07,04,11,45,28.40
2015,07,04,11,46,28.50
2015,07,04,11,47,28.60
2015,07,04,11,48,28.70
2015,07,04,11,49,28.70
2015,07,04,11,50,28.80
2015,07,04,11,51,28.80
2015,07,04,11,52,28.80
2015,07,04,11,53,28.90
2015,07,04,11,54,29.00
2015,07,04,11,55,29.10
2015,07,04,11,56,29.20
2015,07,04,11,57,29.20
2015,07,04,11,58,29.20
2015,07,04,11,59,29.20
2015,07,04,12,00,29.10
2015,07,04,12,01,29.10
2015,07,04,12,02,29.10
2015,07,04,12,03,29.10
2015,07,04,12,04,29.10
2015,07,04,12,05,29.10
2015,07,04,12,06,29.00
2015,07,04,12,07,29.00
2015,07,04,12,08,29.00
2015,07,04,12,09,29.10
2015,07,04,12,10,29.10
2015,07,04,12,11,29.10
2015,07,04,12,12,29.10
2015,07,04,12,13,29.00
2015,07,04,12,14,29.00
2015,07,04,12,15,28.90
2015,07,04,12,16,28.80
2015,07,04,12,17,28.80
2015,07,04,12,18,28.90
2015,07,04,12,19,28.90
2015,07,04,12,20,28.90
2015,07,04,12,21,29.00
2015,07,04,12,22,29.00
2015,07,04,12,23,28.90
2015,07,04,12,24,28.90
2015,07,04,12,25,28.80
2015,07,04,12,26,28.90
2015,07,04,12,27,28.90
2015,07,04,12,28,28.90
2015,07,04,12,29,28.90
2015,07,04,12,30,28.90
2015,07,04,12,31,28.90
2015,07,04,12,32,28.90
2015,07,04,12,33,29.00
2015,07,04,12,34,29.00
2015,07,04,12,35,29.10
2015,07,04,12,36,29.00
2015,07,04,12,37,29.00
2015,07,04,12,38,28.90
2015,07,04,12,39,29.00
2015,07,04,12,40,29.10
2015,07,04,12,41,29.10
2015,07,04,12,42,29.20
2015,07,04,12,43,29.30
2015,07,04,12,44,29.20
2015,07,04,12,45,29.20
2015,07,04,12,46,29.10
2015,07,04,12,47,29.10
2015,07,04,12,48,29.00
2015,07,04,12,49,29.00
2015,07,04,12,50,29.00
2015,07,04,12,51,29.00
2015,07,04,12,52,29.10
2015,07,04,12,53,29.20
2015,07,04,12,54,29.30
2015,07,04,12,55,29.30
2015,07,04,12,56,29.30
2015,07,04,12,57,29.40
2015,07,04,12,58,29.40
2015,07,04,12,59,29.40
2015,07,04,13,00,29.50
2015,07,04,13,01,29.50
2015,07,04,13,02,29.40
2015,07,04,13,03,29.30
2015,07,04,13,04,29.40
2015,07,04,13,05,29.40
2015,07,04,13,06,29.40
2015,07,04,13,07,29.40
2015,07,04,13,08,29.30
2015,07,04,13,09,29.30
2015,07,04,13,10,29.30
2015,07,04,13,11,29.30
2015,07,04,13,12,29.20
2015,07,04,13,13,29.20
2015,07,04,13,14,29.20
2015,07,04,13,15,29.10
2015,07,04,13,16,29.10
2015,07,04,13,17,29.20
2015,07,04,13,18,29.20
2015,07,04,13,19,29.30
2015,07,04,13,20,29.40
2015,07,04,13,21,29.40
2015,07,04,13,22,29.40
2015,07,04,13,23,29.40
2015,07,04,13,24,29.40
2015,07,04,13,25,29.40
2015,07,04,13,26,29.40
2015,07,04,13,27,29.30
2015,07,04,13,28,29.40
2015,07,04,13,29,29.40
2015,07,04,13,30,29.40
2015,07,04,13,31,29.40
2015,07,04,13,32,29.40
2015,07,04,13,33,29.40
2015,07,04,13,34,29.40
2015,07,04,13,35,29.40
2015,07,04,13,36,29.40
2015,07,04,13,37,29.40
2015,07,04,13,38,29.50
2015,07,04,13,39,29.40
2015,07,04,13,40,29.40
2015,07,04,13,41,29.50
2015,07,04,13,42,29.50
2015,07,04,13,43,29.50
2015,07,04,13,44,29.60
2015,07,04,13,45,29.60
2015,07,04,13,46,29.50
2015,07,04,13,47,29.50
2015,07,04,13,48,29.50
2015,07,04,13,49,29.50
2015,07,04,13,50,29.50
2015,07,04,13,51,29.40
2015,07,04,13,52,29.40
2015,07,04,13,53,29.40
2015,07,04,13,54,29.50
2015,07,04,13,55,29.60
2015,07,04,13,56,29.70
2015,07,04,13,57,29.70
2015,07,04,13,58,29.80
2015,07,04,13,59,29.90
2015,07,04,14,00,30.00
2015,07,04,14,01,30.00
2015,07,04,14,02,30.00
2015,07,04,14,03,30.10
2015,07,04,14,04,30.10
2015,07,04,14,05,30.10
2015,07,04,14,06,30.20
2015,07,04,14,07,30.10
2015,07,04,14,08,30.10
2015,07,04,14,09,30.10
2015,07,04,14,10,30.00
2015,07,04,14,11,30.00
2015,07,04,14,12,30.00
2015,07,04,14,13,30.00
2015,07,04,14,14,30.10
2015,07,04,14,15,30.10
2015,07,04,14,16,30.10
2015,07,04,14,17,30.20
2015,07,04,14,18,30.20
2015,07,04,14,19,30.20
2015,07,04,14,20,30.20
2015,07,04,14,21,30.20
2015,07,04,14,22,30.20
2015,07,04,14,23,30.20
2015,07,04,14,24,30.20
2015,07,04,14,25,30.20
2015,07,04,14,26,30.20
2015,07,04,14,27,30.20
2015,07,04,14,28,30.20
2015,07,04,14,29,30.20
2015,07,04,14,30,30.30
2015,07,04,14,31,30.20
2015,07,04,14,32,30.20
2015,07,04,14,33,30.20
2015,07,04,14,34,30.30
2015,07,04,14,35,30.30
2015,07,04,14,36,30.30
2015,07,04,14,37,30.30
2015,07,04,14,38,30.30
2015,07,04,14,39,30.30
2015,07,04,14,40,30.30
2015,07,04,14,41,30.40
2015,07,04,14,42,30.40
2015,07,04,14,43,30.40
2015,07,04,14,44,30.40
2015,07,04,14,45,30.40
2015,07,04,14,46,30.50
2015,07,04,14,47,30.50
2015,07,04,14,48,30.50
2015,07,04,14,49,30.50
2015,07,04,14,50,30.50
2015,07,04,14,51,30.50
2015,07,04,14,52,30.50
2015,07,04,14,53,30.50
2015,07,04,14,54,30.50
2015,07,04,14,55,30.40
2015,07,04,14,56,30.50
2015,07,04,14,57,30.50
2015,07,04,14,58,30.60
2015,07,04,14,59,30.60
2015,07,04,15,00,30.70
2015,07,04,15,01,30.70
2015,07,04,15,02,30.70
2015,07,04,15,03,30.70
2015,07,04,15,04,30.80
2015,07,04,15,05,30.80
2015,07,04,15,06,30.90
2015,07,04,15,07,30.90
2015,07,04,15,08,30.90
2015,07,04,15,09,30.90
2015,07,04,15,10,30.90
2015,07,04,15,11,30.80
2015,07,04,15,12,30.80
2015,07,04,15,13,30.80
2015,07,04,15,14,30.80
2015,07,04,15,15,30.80
2015,07,04,15,16,30.80
2015,07,04,15,17,30.80
2015,07,04,15,18,30.80
2015,07,04,15,19,30.80
2015,07,04,15,20,30.70
2015,07,04,15,21,30.60
2015,07,04,15,22,30.60
2015,07,04,15,23,30.50
2015,07,04,15,24,30.40
2015,07,04,15,25,30.30
2015,07,04,15,26,30.30
2015,07,04,15,27,30.30
2015,07,04,15,28,30.40
2015,07,04,15,29,30.50
2015,07,04,15,30,30.60
2015,07,04,15,31,30.80
2015,07,04,15,32,30.80
2015,07,04,15,33,30.90
2015,07,04,15,34,31.00
2015,07,04,15,35,31.10
2015,07,04,15,36,31.20
2015,07,04,15,37,31.30
2015,07,04,15,38,31.20
2015,07,04,15,39,31.20
2015,07,04,15,40,31.20
2015,07,04,15,41,31.20
2015,07,04,15,42,31.20
2015,07,04,15,43,31.20
2015,07,04,15,44,31.30
2015,07,04,15,45,31.40
2015,07,04,15,46,31.30
2015,07,04,15,47,31.30
2015,07,04,15,48,31.40
2015,07,04,15,49,31.50
2015,07,04,15,50,31.60
2015,07,04,15,51,31.60
2015,07,04,15,52,31.70
2015,07,04,15,53,31.90
2015,07,04,15,54,32.00
2015,07,04,15,55,32.10
2015,07,04,15,56,32.20
2015,07,04,15,57,32.30
2015,07,04,15,58,32.30
2015,07,04,15,59,32.30
2015,07,04,16,00,32.10
2015,07,04,16,01,31.90
2015,07,04,16,02,31.70
2015,07,04,16,03,31.50
2015,07,04,16,04,31.50
2015,07,04,16,05,31.40
2015,07,04,16,06,31.50
2015,07,04,16,07,31.60
2015,07,04,16,08,31.60
2015,07,04,16,09,31.80
2015,07,04,16,10,31.90
2015,07,04,16,11,31.90
2015,07,04,16,12,31.90
2015,07,04,16,13,31.90
2015,07,04,16,14,31.90
2015,07,04,16,15,31.80
2015,07,04,16,16,31.80
2015,07,04,16,17,31.80
2015,07,04,16,18,31.70
2015,07,04,16,19,31.70
2015,07,04,16,20,31.70
2015,07,04,16,21,31.80
2015,07,04,16,22,31.90
2015,07,04,16,23,32.00
2015,07,04,16,24,32.10
2015,07,04,16,25,32.20
2015,07,04,16,26,32.20
2015,07,04,16,27,32.20
2015,07,04,16,28,32.20
2015,07,04,16,29,32.10
2015,07,04,16,30,32.10
2015,07,04,16,31,32.00
2015,07,04,16,32,32.00
2015,07,04,16,33,31.80
2015,07,04,16,34,31.80
2015,07,04,16,35,31.80
2015,07,04,16,36,31.80
2015,07,04,16,37,31.90
2015,07,04,16,38,31.90
2015,07,04,16,39,31.90
2015,07,04,16,40,32.00
2015,07,04,16,41,32.10
2015,07,04,16,42,32.00
2015,07,04,16,43,32.00
2015,07,04,16,44,32.10
2015,07,04,16,45,32.10
2015,07,04,16,46,32.10
2015,07,04,16,47,32.00
2015,07,04,16,48,32.00
2015,07,04,16,49,32.00
2015,07,04,16,50,32.10
2015,07,04,16,51,32.20
2015,07,04,16,52,32.20
2015,07,04,16,53,32.20
2015,07,04,16,54,32.20
2015,07,04,16,55,32.20
2015,07,04,16,56,32.30
2015,07,04,16,57,32.30
2015,07,04,16,58,32.40
2015,07,04,16,59,32.50
2015,07,04,17,00,32.60
2015,07,04,17,01,32.60
2015,07,04,17,02,32.50
2015,07,04,17,03,32.50
2015,07,04,17,04,32.40
2015,07,04,17,05,32.30
2015,07,04,17,06,32.30
2015,07,04,17,07,32.30
2015,07,04,17,08,32.20
2015,07,04,17,09,32.20
2015,07,04,17,10,32.30
2015,07,04,17,11,32.30
2015,07,04,17,12,32.30
2015,07,04,17,13,32.40
2015,07,04,17,14,32.50
2015,07,04,17,15,32.50
2015,07,04,17,16,32.50
2015,07,04,17,17,32.50
2015,07,04,17,18,32.50
2015,07,04,17,19,32.40